Wind_Speed
13 13 14 14 15 15 15 15 15 15 15 15 15 16 16 16 16 16 15 15 15 16 16 16 16 16 17 18 19 19 20 21 22 23 24 25 25 26
13 14 14 15 15 15 15 15 15 15 15 15 15 15 15 15 15 15 15 16 16 16 16 16 16 17 17 18 19 19 20 21 22 23 24 25 25 26
14 14 14 15 16 16 16 16 15 15 15 15 14 15 15 15 15 16 16 16 16 15 16 17 17 17 16 17 18 19 21 21 22 23 24 25 25 26
14 14 15 15 15 16 16 16 15 15 16 15 15 15 15 15 16 16 16 16 16 15 16 17 17 18 17 17 18 19 21 21 22 23 23 24 25 26
14 15 15 15 15 16 16 16 16 16 16 15 14 15 15 15 16 16 16 17 16 16 16 16 16 17 18 18 19 19 20 21 22 23 23 24 24 25
14 14 15 15 15 16 16 16 16 16 15 15 14 14 14 15 15 16 16 16 17 17 17 17 17 17 18 19 20 20 21 22 22 23 23 23 24 24
14 14 14 14 14 15 16 16 15 15 14 14 14 14 15 15 15 16 16 17 17 17 17 17 18 19 19 19 20 21 21 22 22 23 23 23 23 23
14 15 14 14 14 15 15 14 13 13 13 13 14 14 15 15 15 15 16 17 17 17 18 18 19 19 19 20 20 21 21 22 23 23 23 23 23 23
14 14 15 15 15 15 14 13 13 12 13 14 14 15 15 15 16 16 16 16 16 17 18 19 19 19 20 21 21 22 22 22 22 23 22 22 22 22
14 14 15 15 15 14 14 14 14 14 14 15 15 15 16 16 16 16 16 16 16 17 18 19 19 20 21 22 22 22 22 23 22 22 21 21 21 21
15 15 15 15 15 15 15 14 14 15 15 15 15 16 16 16 17 16 16 16 17 18 18 19 20 21 21 22 23 22 21 21 21 21 21 21 21 22
15 15 15 15 15 15 15 15 15 16 15 15 15 16 16 16 16 16 16 17 17 18 19 20 20 21 22 22 22 21 20 20 20 21 21 21 21 22
15 15 15 15 15 16 16 16 16 15 15 15 16 16 16 17 16 16 16 18 18 19 20 20 21 21 22 21 22 21 21 21 21 21 21 21 21 22
16 15 15 15 15 15 15 15 16 16 16 16 16 16 17 17 17 17 17 19 19 20 20 20 21 21 21 21 21 22 22 22 22 22 22 21 21 22
16 16 15 15 15 15 15 16 16 16 16 16 17 17 17 17 17 18 18 19 19 20 20 21 21 21 21 21 21 21 22 22 22 22 22 22 22 22
17 16 16 16 16 16 16 17 17 17 17 17 18 18 18 18 18 18 18 18 19 20 21 22 21 21 21 21 21 21 22 22 22 22 22 22 23 23
18 18 18 18 18 17 17 17 17 18 18 18 18 18 18 18 19 19 19 19 20 21 22 22 22 21 21 20 21 22 22 22 22 22 23 23 24 24
19 19 19 19 19 19 18 18 18 18 18 18 19 19 18 19 19 18 19 19 20 21 21 21 21 20 21 21 21 22 22 22 22 22 22 23 23 24
20 20 19 20 19 19 19 18 18 18 18 18 18 18 18 19 19 19 19 19 20 20 21 21 21 21 21 22 22 23 22 22 22 23 23 24 24 24
20 20 19 19 19 19 19 18 18 18 18 18 18 19 19 19 19 19 19 19 20 20 20 21 21 22 23 23 23 23 23 23 23 23 24 24 24 24
21 20 19 19 19 19 18 18 19 19 19 19 20 20 20 20 20 19 19 20 21 21 21 22 23 23 23 23 23 22 23 24 24 24 24 24 23 23
21 21 20 20 20 20 20 20 20 20 20 21 21 21 20 20 20 19 19 20 21 21 22 22 23 23 23 23 23 23 24 24 24 24 24 24 23 22
23 22 23 22 22 21 21 21 21 21 21 21 22 22 21 20 19 19 19 20 21 21 21 22 23 23 23 23 23 24 24 24 24 23 22 22 21 21
Wind_Direction
277 277 279 282 282 282 281 279 278 278 278 277 278 277 279 279 280 281 284 286 285 281 278 278 281 278 274 273 273 273 272 271 269 269 268 267 267 266
277 278 279 280 280 280 281 281 279 279 278 279 282 282 282 280 280 281 283 284 284 282 281 281 283 283 278 274 275 274 274 273 271 270 270 268 268 267
278 278 279 280 281 282 283 282 282 282 280 279 283 286 285 283 282 282 281 282 284 281 282 282 282 283 282 279 277 277 277 278 276 274 272 271 271 269
276 276 278 280 282 282 284 283 282 283 283 283 283 284 285 284 283 282 281 282 282 280 281 282 284 286 284 284 282 281 281 281 280 279 277 274 273 271
274 275 276 279 282 283 284 284 282 283 284 282 281 282 284 284 282 282 282 282 282 282 284 285 287 289 288 287 288 287 285 286 284 282 280 277 275 274
275 276 276 279 281 283 285 286 284 283 281 280 281 281 283 284 284 283 283 283 283 284 285 287 288 292 293 293 293 291 289 288 287 285 282 279 277 275
279 278 277 280 282 284 287 289 285 281 279 278 281 284 285 285 285 285 284 284 286 286 285 287 290 291 293 294 295 295 293 291 289 287 285 282 280 277
282 280 278 277 281 285 288 289 284 280 279 279 283 287 288 287 284 285 288 286 287 286 286 289 293 293 293 294 296 296 295 293 291 289 286 284 282 279
282 279 279 280 282 286 287 287 283 285 282 281 284 286 288 287 283 283 287 290 289 290 290 291 291 295 297 296 297 296 295 295 294 291 290 287 284 281
280 280 282 283 283 284 284 285 284 283 284 281 282 286 289 286 283 284 286 289 290 292 295 294 293 295 298 299 299 299 297 296 296 295 292 289 287 285
284 283 284 283 283 284 283 284 283 284 284 282 283 286 289 286 284 284 285 289 291 292 294 295 295 295 297 298 298 298 298 297 296 296 294 290 287 286
284 284 284 282 282 282 282 283 283 283 284 286 287 288 289 286 283 283 285 290 291 293 295 297 298 298 297 298 297 298 297 297 298 296 297 295 290 289
286 285 283 280 280 281 283 284 284 284 286 287 287 287 288 287 284 284 286 292 293 296 298 299 300 300 301 300 298 298 299 298 297 298 298 297 294 292
288 287 284 281 282 284 285 287 288 288 287 286 286 286 287 286 283 283 288 293 296 298 299 300 300 300 302 303 302 300 299 298 297 297 298 298 295 294
287 287 286 283 283 284 285 288 290 290 289 285 286 288 288 287 285 285 289 294 296 298 299 300 300 299 300 301 303 302 300 297 296 296 297 297 297 297
283 284 284 283 283 284 287 289 290 290 290 289 288 287 289 290 287 287 289 294 297 299 300 300 300 299 298 301 302 303 302 299 297 295 296 297 298 299
280 280 282 285 286 285 287 289 290 289 287 288 289 289 288 288 288 287 291 293 298 302 303 303 302 301 300 301 302 302 302 301 299 298 298 297 297 298
279 278 280 283 285 285 286 288 288 288 286 287 289 291 290 290 290 290 294 297 300 303 305 304 303 303 302 301 303 303 302 302 301 301 301 300 298 298
276 277 278 281 283 284 286 288 287 287 288 289 289 290 290 291 291 291 295 297 300 303 304 304 305 306 307 307 305 304 303 302 302 302 301 300 300 299
279 278 278 278 280 283 285 287 287 287 288 289 288 288 289 291 290 292 294 295 299 302 303 304 305 306 308 308 306 303 302 302 302 302 302 300 300 300
279 278 279 279 279 280 282 285 286 287 288 288 288 289 289 291 292 292 293 295 299 301 304 306 306 306 306 305 306 305 303 302 300 299 300 300 300 300
278 277 276 278 278 278 279 281 283 285 286 287 287 288 290 293 293 292 292 296 299 302 304 305 306 305 305 305 304 305 305 304 303 301 300 300 300 300
277 277 276 275 276 276 278 279 280 281 283 284 286 286 288 291 290 291 293 297 301 303 305 305 305 305 306 307 307 306 307 305 303 302 301 299 298 299
Height
5810 5810 5810 5810 5810 5810 5810 5810 5810 5810 5810 5810 5810 5810 5809 5809 5809 5808 5808 5807 5806 5805 5804 5804 5804 5803 5804 5804 5804 5804 5804 5804 5804 5804 5805 5805 5805 5806
5806 5806 5806 5806 5806 5806 5806 5806 5806 5806 5806 5806 5806 5805 5805 5804 5804 5804 5803 5802 5802 5801 5800 5800 5800 5799 5799 5799 5799 5798 5798 5798 5798 5798 5797 5798 5798 5798
5803 5803 5803 5802 5802 5802 5802 5802 5802 5802 5802 5802 5801 5800 5800 5800 5799 5799 5799 5798 5798 5797 5797 5796 5795 5795 5794 5794 5793 5793 5792 5791 5791 5791 5790 5790 5790 5790
5799 5799 5799 5798 5798 5798 5798 5798 5798 5797 5797 5797 5797 5796 5796 5795 5795 5794 5794 5794 5793 5793 5793 5792 5791 5790 5789 5789 5788 5787 5786 5785 5784 5783 5783 5783 5782 5782
5795 5795 5795 5794 5794 5794 5794 5793 5793 5793 5793 5792 5792 5792 5791 5791 5790 5790 5789 5789 5789 5788 5788 5787 5787 5786 5784 5783 5782 5781 5780 5778 5777 5776 5775 5775 5774 5774
5791 5791 5791 5790 5790 5790 5789 5789 5789 5788 5788 5788 5788 5787 5787 5786 5786 5785 5785 5784 5784 5784 5783 5783 5782 5781 5780 5778 5777 5775 5773 5772 5770 5769 5768 5767 5766 5766
5787 5787 5787 5787 5786 5786 5785 5785 5784 5784 5783 5783 5783 5783 5782 5782 5781 5781 5780 5780 5779 5779 5779 5778 5777 5776 5774 5773 5771 5769 5767 5765 5764 5762 5761 5760 5759 5758
5783 5783 5783 5783 5783 5782 5781 5781 5780 5780 5780 5780 5779 5779 5778 5778 5777 5776 5776 5775 5775 5775 5773 5773 5771 5770 5769 5767 5765 5763 5761 5759 5757 5755 5754 5753 5752 5751
5779 5779 5779 5779 5778 5778 5777 5777 5777 5776 5776 5776 5775 5775 5774 5773 5772 5772 5771 5770 5770 5769 5768 5767 5766 5765 5763 5761 5759 5757 5755 5752 5750 5748 5747 5746 5745 5744
5776 5775 5775 5775 5774 5774 5774 5773 5773 5772 5772 5771 5771 5770 5769 5768 5768 5767 5767 5766 5765 5764 5763 5762 5761 5759 5757 5755 5753 5751 5748 5746 5744 5742 5741 5739 5738 5737
5772 5772 5772 5771 5771 5770 5770 5769 5769 5768 5767 5767 5766 5766 5765 5764 5763 5763 5762 5762 5761 5760 5759 5757 5755 5753 5751 5749 5747 5745 5743 5740 5738 5736 5735 5733 5732 5731
5769 5768 5768 5767 5767 5766 5766 5765 5765 5764 5763 5763 5762 5762 5761 5760 5759 5758 5758 5757 5756 5755 5754 5752 5750 5747 5746 5744 5741 5739 5737 5735 5733 5731 5729 5727 5726 5724
5765 5765 5764 5763 5763 5762 5762 5761 5760 5760 5759 5759 5758 5757 5756 5755 5755 5754 5753 5752 5751 5749 5748 5746 5744 5742 5740 5738 5736 5733 5731 5729 5727 5725 5723 5721 5720 5718
5761 5761 5760 5759 5759 5758 5757 5757 5756 5756 5755 5754 5754 5753 5752 5751 5750 5749 5748 5747 5746 5744 5742 5740 5738 5736 5734 5732 5730 5728 5725 5723 5721 5719 5717 5715 5713 5712
5757 5757 5756 5756 5755 5754 5753 5752 5751 5751 5750 5750 5749 5748 5747 5747 5746 5745 5743 5742 5741 5739 5737 5734 5732 5730 5728 5726 5724 5722 5719 5717 5715 5713 5711 5709 5707 5705
5753 5753 5752 5751 5751 5750 5750 5748 5747 5746 5746 5745 5744 5743 5742 5741 5740 5739 5738 5737 5735 5734 5731 5728 5726 5724 5722 5720 5718 5716 5713 5711 5709 5707 5705 5703 5701 5699
5748 5748 5748 5747 5746 5746 5745 5744 5743 5742 5741 5740 5739 5738 5737 5736 5735 5734 5732 5731 5729 5728 5726 5723 5720 5718 5716 5714 5712 5710 5707 5705 5703 5701 5699 5697 5694 5692
5743 5742 5742 5742 5741 5740 5740 5739 5738 5737 5736 5735 5734 5733 5732 5731 5730 5729 5727 5725 5724 5722 5720 5717 5715 5712 5710 5708 5706 5704 5701 5699 5697 5694 5692 5690 5688 5686
5737 5737 5737 5736 5736 5735 5734 5734 5733 5732 5731 5730 5729 5728 5727 5726 5725 5723 5722 5720 5718 5716 5714 5712 5709 5707 5705 5703 5700 5697 5695 5692 5690 5688 5686 5683 5681 5679
5731 5731 5731 5731 5730 5730 5729 5728 5728 5727 5726 5725 5724 5723 5722 5721 5719 5718 5717 5715 5713 5711 5709 5706 5703 5701 5698 5696 5694 5691 5688 5686 5684 5681 5679 5676 5674 5672
5725 5725 5725 5725 5725 5724 5724 5723 5722 5722 5721 5720 5719 5718 5717 5716 5714 5713 5711 5709 5708 5705 5703 5700 5697 5694 5692 5690 5688 5685 5682 5679 5677 5674 5672 5670 5667 5665
5719 5719 5719 5719 5719 5718 5718 5717 5717 5716 5715 5714 5713 5712 5711 5710 5709 5707 5705 5704 5702 5699 5697 5694 5691 5688 5686 5684 5681 5678 5675 5673 5670 5667 5665 5663 5661 5659
5712 5712 5712 5712 5712 5712 5712 5711 5711 5710 5709 5708 5707 5706 5705 5704 5703 5701 5700 5698 5696 5694 5691 5688 5686 5683 5680 5677 5675 5672 5669 5666 5663 5661 5659 5657 5655 5653